Regional Weather Roundup
Issued by NWS Burlington, VT

Home | Current Version | Previous Version | Text Only | Print | Product List | Glossary On
Versions: 1 2 3 4 5 6 7 8 9 10 11 12 13 14 15 16 17 18 19 20 21 22 23 24 25 26 27 28 29 30 31 32 33 34 35 36 37 38 39 40 41 42 43 44 45 46 47 48 49 50
000
ASUS41 KBTV 240930
RWRBTV
VERMONT REGIONAL WEATHER ROUNDUP
NATIONAL WEATHER SERVICE BURLINGTON VT
500 AM EDT SUN JUL 24 2016

NOTE: "FAIR" INDICATES FEW OR NO CLOUDS BELOW 12,000 FEET WITH NO
SIGNIFICANT WEATHER AND/OR OBSTRUCTIONS TO VISIBILITY.

* THESE REPORTS ARE NOT UNDER NWS QUALITY CONTROL AND/OR DO NOT
  REPORT WEATHER SUCH AS PRECIPITATION AND FOG.

VTZ001>019-241000-
_____VERMONT_____


CITY           SKY/WX    TMP DP  RH WIND       PRES   REMARKS
BURLINGTON     FAIR      62  55  77 N7        29.99R
MONTPELIER     FAIR      61  59  93 VRB3      30.00F
MORRISVILLE    FAIR      56  54  93 CALM      29.99R FOG
ST. JOHNSBURY*   N/A     61  59  93 MISG      29.93F
LYNDONVILLE*   CLOUDY    59  58  97 CALM      29.97S
MIDDLEBURY*    CLOUDY    61  61 100 CALM      29.99R
RUTLAND*       CLOUDY    58  57  97 E5        29.98S
SPRINGFIELD    FOG       58  57  97 CALM      29.96R VSB 1/4
HIGHGATE*      FAIR      54  53  98 CALM      29.99R FOG
NEWPORT*       CLOUDY    56  54  92 NW6       29.99R
BENNINGTON     FOG       54  53  97 CALM      29.98R VSB 1/4
MT. MANSFIELD*   N/A     48 N/A N/A NW28        N/A

_____LAKE CHAMPLAIN_____


CITY           SKY/WX    TMP DP  RH WIND       PRES   REMARKS
BURTON ISLAND*   N/A     63  54  72 NE2         N/A
COLCHESTER RF*   N/A     66  59  77 N17         N/A
DIAMOND ISL*     N/A     66  63  88 N7          N/A

$$

NYZ007-026>031-035-052-083-087-241000-
_____NORTHERN NEW YORK_____


CITY           SKY/WX    TMP DP  RH WIND       PRES   REMARKS
PLATTSBURGH    FAIR      60  53  77 NW7       30.00R
SARANAC LAKE   FOG       48  46  93 N3        30.00F VSB 3/4
MASSENA        FAIR      57  54  89 CALM      30.01S
OGDENSBURG*    CLEAR     55  54  94 CALM      30.01S
POTSDAM*       CLEAR     55  55 100 CALM      30.01R
WATERTOWN      FAIR      54  52  93 CALM      30.00S FOG
FT DRUM        FAIR      59  57  94 NW2       30.01R
ALBANY         FAIR      61  59  93 CALM      29.96F
GLENS FALLS    FOG       63  62  97 CALM      29.97R VSB 1/4

$$
NHZ002-005-011-241000-
_____NEW HAMPSHIRE_____


CITY           SKY/WX    TMP DP  RH WIND       PRES   REMARKS
LEBANON        FAIR      57  54  89 CALM      29.94S
KEENE          FOG       61  59  94 CALM      29.98R VSB 1/4
MT WASHINGTON  MOCLDY    45  45  99 NW38G45     N/A
PLYMOUTH       FAIR      64  60  86 NW3       29.92S
WHITEFIELD     FAIR      61  58  90 CALM      29.95S

$$

_____REGIONAL QUEBEC LOCATIONS_____


CITY           SKY/WX    TMP DP  RH WIND       PRES   REMARKS
MONTREAL       PTCLDY    57  52  82 W5        29.99R
QUEBEC CITY    PTCLDY    54  50  87 W6        29.92R
SHERBROOKE     CLEAR     52  52 100 W6        29.95S

_____REGIONAL ONTARIO LOCATIONS_____


CITY           SKY/WX    TMP DP  RH WIND       PRES   REMARKS
OTTAWA         PTCLDY    59  54  82 NE5       30.02R

______KEY______
VSB  - VISIBILITY IN MILES
WCI  - WIND CHILL INDEX
HX   - HEAT INDEX
$$
NNNN




USA.gov is the U.S. government's official web portal to all federal, state and local government web resources and services.